This is the latest recevied weather packets stored in our database for station/object SQ9MHX-13. If no packets are shown the sender has not sent any weather packets the latest 10 day(s).
| Time | Temp. | Humidity | Pressure | Rain* | Wind** | Luminosity | Snow |
|---|---|---|---|---|---|---|---|
| 1777721085 | 20° C | 37% | 963.7 hPa | - | 0 m/s | - | - |
| 1777720786 | 21.11° C | 35% | 962.9 hPa | - | 0 m/s | - | - |
| 1777720487 | 21.11° C | 36% | 963.8 hPa | - | 0 m/s | - | - |
| 1777720188 | 20° C | 39% | 964.5 hPa | - | 0 m/s | - | - |
| 1777719889 | 20° C | 40% | 963.5 hPa | - | 0 m/s | - | - |
| 1777719291 | 18.89° C | 40% | 965 hPa | - | 0 m/s | - | - |
| 1777718992 | 18.89° C | 41% | 965.4 hPa | - | 0 m/s | - | - |
| 1777718693 | 20° C | 41% | 964.8 hPa | - | 0 m/s | - | - |
| 1777718394 | 20° C | 39% | 964.1 hPa | - | 0 m/s | - | - |
| 1777718095 | 20° C | 40% | 964.6 hPa | - | 0 m/s | - | - |
| 1777717796 | 20° C | 39% | 964.7 hPa | - | 0 m/s | - | - |
| 1777717497 | 18.89° C | 43% | 964.7 hPa | - | 0 m/s | - | - |
| 1777717198 | 20° C | 41% | 964 hPa | - | 0 m/s | - | - |
| 1777716899 | 20° C | 40% | 964.8 hPa | - | 0 m/s | - | - |
| 1777716600 | 18.89° C | 41% | 965.2 hPa | - | 0 m/s | - | - |
| 1777716301 | 18.89° C | 42% | 965.1 hPa | - | 0 m/s | - | - |
| 1777715703 | 20° C | 43% | 965.8 hPa | - | 0 m/s | - | - |
| 1777715404 | 18.89° C | 41% | 966.2 hPa | - | 0 m/s | - | - |
| 1777715105 | 18.89° C | 44% | 966.8 hPa | - | 0 m/s | - | - |
| 1777715051 | 17.78° C | 43% | 966.5 hPa | - | 0 m/s | - | - |
| 1777714806 | 17.78° C | 43% | 966.5 hPa | - | 0 m/s | - | - |
| 1777714507 | 17.78° C | 43% | 966.2 hPa | - | 0 m/s | - | - |
| 1777714208 | 18.89° C | 43% | 965.4 hPa | - | 0 m/s | - | - |
| 1777713909 | 18.89° C | 40% | 965.2 hPa | - | 0 m/s | - | - |
| 1777713610 | 20° C | 38% | 965.9 hPa | - | 0 m/s | - | - |
* Rain since midnight (hover to see other rain measurements)
** Current wind speed in m/s (hover to see current wind gust speed)